Location: Pic du Midi - T1M
(42.9366°N, 0.1426°E)
Time: 19:37:40
(UTC+01:00)

Nauka - Pass Details

Date: 28 September 2021
Orbit: 417 x 423 km, 51.6° (Epoch: 26 October)

Event Time Altitude Azimuth Distance (km) Brightness Sun altitude
Rises 19:59:49 0° 302° (WNW) 2,358 ? -14.3°
Reaches altitude 10° 20:02:16 10° 320° (NW) 1,495 ? -14.8°
Maximum altitude 20:04:54 21° 11° (NNE) 1,002 ? -15.2°
Enters shadow 20:06:11 17° 42° (NE) 1,137 ? -15.5°
